Retour au catalogue

KOSMOS-1867 COOLANT

ActifLEO
NORAD 59050·DEBRIS·🇷🇺 Russia
Ce nom de satellite n'a pas encore été confirmé par des sources officielles.

Lancé Jul 10, 1987 depuis Baikonur Cosmodrome

Loading…

Prochains Passages (prochaines 24 heures)

TLE

FraisSource: Space-Track

Époque: Sep 14, 2026, 05:25 UTC

1 59050U 87060AX  26257.22577805  .00000242  00000-0  12050-3 0  9997
2 59050  65.0062 114.8491 0019405 278.1552  81.7333 14.34776112133702

Suivez KOSMOS-1867 COOLANT en temps réel avec AllMySat

Download on the App Store